DW3793 Weather Reports


Display with metric or nautical units.
time (UTC)temp
F
wind
direction
speed
MPH
gust
MPH
rain 1hr
in
rain 24hr
in
rain mn
in
humidity
%
barometer
mb
20260901043053 68 275 2.0 5.0 0.00 0.00 0.00 30 1010.3
20260901041548 68 294 3.0 5.0 0.00 0.00 0.00 30 1010.4
20260901040050 69 292 2.0 7.0 0.00 0.00 0.00 29 1010.4
20260901034546 70 322 2.0 8.0 0.00 0.00 0.00 28 1010.5
20260901033053 71 254 1.0 4.0 0.00 0.00 0.00 28 1010.4
20260901031553 70 294 2.0 5.0 0.00 0.00 0.00 28 1010.4
20260901030042 70 302 3.0 7.0 0.00 0.00 0.00 30 1010.2
20260901024542 70 287 0.0 3.0 0.00 0.00 0.00 30 1010.2
20260901023043 71 294 0.0 1.0 0.00 0.00 0.00 31 1010.2
20260901021510 73 293 0.0 2.0 0.00 0.00 0.00 30 1010.1
20260901020009 77 296 0.0 1.0 0.00 0.00 0.00 26 1010.2
20260901014609 80 296 0.0 0.0 0.00 0.00 0.00 21 1010.1
20260901013047 82 42 0.0 6.0 0.00 0.00 0.00 19 1010.3
20260901011539 82 324 2.0 10.0 0.00 0.00 0.00 18 1010.2
20260901010038 83 327 3.0 10.0 0.00 0.00 0.00 17 1010.3
20260901004532 84 320 2.0 6.0 0.00 0.00 0.00 18 1010.4
20260901003030 84 329 1.0 7.0 0.00 0.00 0.00 18 1010.5
20260901001529 85 14 2.0 8.0 0.00 0.00 0.00 16 1010.6
20260901000026 86 26 3.0 8.0 0.00 0.00 0.00 16 1010.8
20260831234525 85 49 2.0 9.0 0.00 0.00 0.00 17 1010.9
20260831233022 85 329 2.0 6.0 0.00 0.00 0.00 16 1011.1
20260831231521 85 319 3.0 10.0 0.00 0.00 0.00 15 1011.2
20260831230018 85 56 2.0 8.0 0.00 0.00 0.00 15 1011.3
20260831224516 86 12 4.0 10.0 0.00 0.00 0.00 15 1011.5
20260831223019 86 90 4.0 9.0 0.00 0.00 0.00 14 1011.6
20260831221523 86 83 2.0 6.0 0.00 0.00 0.00 15 1011.8
20260831220008 85 9 2.0 8.0 0.00 0.00 0.00 14 1012.1
20260831214505 85 323 3.0 12.0 0.00 0.00 0.00 15 1012.4
20260831213003 85 94 2.0 8.0 0.00 0.00 0.00 16 1012.6
20260831211614 83 34 5.0 11.0 0.00 0.00 0.00 15 1012.8
20260831210057 84 16 2.0 10.0 0.00 0.00 0.00 16 1013.0
20260831204554 84 65 3.0 10.0 0.00 0.00 0.00 17 1013.2
20260831203050 83 333 0.0 8.0 0.00 0.00 0.00 18 1013.4
20260831201552 80 131 2.0 7.0 0.00 0.00 0.00 24 1013.7
20260831194521 77 155 2.0 8.0 0.00 0.00 0.00 27 1014.2
20260831193056 77 140 2.0 5.0 0.00 0.00 0.00 28 1014.4
20260831191551 75 55 1.0 4.0 0.00 0.00 0.00 29 1014.8
20260831190051 74 161 1.0 4.0 0.00 0.00 0.00 33 1015.1
20260831184546 72 101 0.0 4.0 0.00 0.00 0.00 34 1015.5
20260831183036 70 78 0.0 2.0 0.00 0.00 0.00 36 1015.8
20260831181534 68 76 2.0 4.0 0.00 0.00 0.00 37 1015.9
20260831180031 67 112 1.0 3.0 0.00 0.00 0.00 39 1016.1
20260831174540 65 48 0.0 4.0 0.00 0.00 0.00 41 1016.3
20260831171537 61 175 0.0 6.0 0.00 0.00 0.00 45 1016.5
20260831170026 60 134 0.0 3.0 0.00 0.00 0.00 46 1016.6
20260831164510 59 119 0.0 3.0 0.00 0.00 0.00 47 1016.7
20260831163006 58 83 0.0 4.0 0.00 0.00 0.00 49 1017.0
20260831161503 57 134 0.0 3.0 0.00 0.00 0.00 50 1017.2
20260831160002 55 137 0.0 4.0 0.00 0.00 0.00 52 1017.2
20260831154501 55 92 0.0 2.0 0.00 0.00 0.00 53 1017.2
20260831153033 55 108 0.0 1.0 0.00 0.00 0.00 52 1017.3
20260831151529 53 153 0.0 0.0 0.00 0.00 0.00 55 1017.3
20260831150022 51 153 0.0 1.0 0.00 0.00 0.00 59 1017.5
20260831144527 51 169 0.0 1.0 0.00 0.00 0.00 59 1017.3
20260831143019 47 279 0.0 1.0 0.00 0.00 0.00 68 1017.1
20260831141517 44 280 0.0 1.0 0.00 0.00 0.00 73 1017.1
20260831140022 42 304 0.0 2.0 0.00 0.00 0.00 76 1017.1
20260831134514 42 319 0.0 1.0 0.00 0.00 0.00 74 1017.0
20260831133013 42 300 1.0 3.0 0.00 0.00 0.00 74 1016.9
20260831131513 42 296 1.0 2.0 0.00 0.00 0.00 73 1016.8
20260831130008 42 280 0.0 3.0 0.00 0.00 0.00 73 1016.7
20260831124506 42 298 1.0 2.0 0.00 0.00 0.00 73 1016.7
20260831123002 43 288 0.0 3.0 0.00 0.00 0.00 70 1016.7
20260831121504 43 324 0.0 2.0 0.00 0.00 0.00 71 1016.7
20260831120059 44 289 1.0 3.0 0.00 0.00 0.00 70 1016.6
20260831114554 44 298 0.0 3.0 0.00 0.00 0.00 69 1016.6
20260831113059 45 288 1.0 3.0 0.00 0.00 0.00 68 1016.6
20260831111555 45 296 2.0 3.0 0.00 0.00 0.00 67 1016.7
20260831110050 45 296 1.0 2.0 0.00 0.00 0.00 67 1016.6
20260831104548 46 289 1.0 4.0 0.00 0.00 0.00 67 1016.6
20260831103057 46 304 0.0 2.0 0.00 0.00 0.00 66 1016.6
20260831101541 46 300 0.0 3.0 0.00 0.00 0.00 65 1016.7
20260831100041 47 298 0.0 2.0 0.00 0.00 0.00 65 1016.7
20260831094534 48 318 1.0 2.0 0.00 0.00 0.00 61 1016.7
20260831093033 49 284 0.0 2.0 0.00 0.00 0.00 59 1016.8
20260831091529 49 287 0.0 1.0 0.00 0.00 0.00 59 1016.9
20260831090027 50 300 0.0 1.0 0.00 0.00 0.00 57 1017.0
20260831084555 52 309 1.0 3.0 0.00 0.00 0.00 54 1017.1
20260831083057 51 347 1.0 3.0 0.00 0.00 0.00 55 1017.0
20260831081523 52 319 2.0 5.0 0.00 0.00 0.00 54 1017.0
20260831080040 52 300 1.0 5.0 0.00 0.00 0.00 53 1017.1
20260831074516 52 273 1.0 4.0 0.00 0.00 0.00 54 1017.1
20260831073027 52 323 2.0 5.0 0.00 0.00 0.00 53 1017.0
20260831071515 53 286 2.0 5.0 0.00 0.00 0.00 53 1017.1
20260831070018 53 289 0.0 5.0 0.00 0.00 0.00 52 1017.2
20260831064510 54 288 0.0 2.0 0.00 0.00 0.00 52 1017.1
20260831063012 55 283 0.0 3.0 0.00 0.00 0.00 50 1017.1
20260831061508 55 322 0.0 1.0 0.00 0.00 0.00 49 1017.0
20260831060007 55 323 0.0 1.0 0.00 0.00 0.00 49 1017.0
20260831054537 56 281 1.0 3.0 0.00 0.00 0.00 48 1017.0
20260831053037 55 292 0.0 2.0 0.00 0.00 0.00 49 1017.1
20260831051536 56 304 1.0 3.0 0.00 0.00 0.00 47 1017.2
20260831050034 57 288 1.0 4.0 0.00 0.00 0.00 45 1017.0
20260831044533 59 313 0.0 4.0 0.00 0.00 0.00 44 1016.9